Weather in Bystrinsk

Russia / Khabarovsk Krai     51°25′52″N   139°28′16″E
temp.,
°C
wind,
m/s
gust,
m/s
humid.,
%
clouds,
%
prec.,
mm/h
press.,
hPa
HPBL,
m
27 february, sat
sat2701:00−19ssw459486 0.0 102952
04:00−20ssw579243 0.0 103096
07:00−21ssw57910 0.0 1030104
10:00−16sw611850 0.0 1029407
13:00−12sw712810 0.0 1027648
16:00−11wsw5108217 0.0 1025541
19:00−14ssw2386100 0.0 102424
22:00−14se228791 0.0 102121
28 february, sun
sun2801:00−12ese1185100 0.0 101729
04:00−12ese2294100 0.4 101231
07:00−14sw2294100 0.0 101122
10:00−9wsw5138596 0.0 1010745
13:00−6wsw7107945 0.0 1011954
16:00−5wnw687469 0.1 10111078
19:00−10w467897 0.1 101484
22:00−15ne339498 0.6 1017105
1 march, mon
mon101:00−18nne0097100 0.2 101821
04:00−20sw2297100 0.2 102020
07:00−20sw349490 0.0 102243
10:00−18sw578795 0.1 1023388
13:00−15wsw81075100 0.0 1023808
16:00−15wsw8117384 0.1 10231157
19:00−19sw458654 0.0 102478
22:00−21wsw597654 0.0 1025155
2 march, tue
tue201:00−22sw6127499 0.0 1025223
04:00−26sw458083 0.0 102770
07:00−27ssw3482100 0.0 102827
10:00−22wsw6117851 0.0 1028726
13:00−18wsw79660 0.0 10281163
16:00−17wsw710690 0.0 10271303
19:00−22w347534 0.0 102829
22:00−24ssw349118 0.0 102924
3 march, wed
wed301:00−26sw34920 0.0 102823
04:00−28ssw34910 0.0 102725
07:00−28ssw34920 0.0 102721
10:00−22sw410880 0.0 1025386
13:00−16sw610760 0.0 1022608
16:00−13wsw59768 0.0 1019706
19:00−18ssw228531 0.0 101822
22:00−18se227861 0.0 101621